Theta_e
322 323 323 324 325 325 335 330 334 334 342 343 341 339 337 341 342 342 342 342 342 340 339 341 342 343 343 344 346 348 351 352 349 347 346 342 340 335 329 327 326 321 322 324
322 322 324 321 320 323 331 330 331 333 333 341 338 336 333 336 340 341 342 342 344 344 344 343 347 346 347 347 348 351 352 350 349 346 344 341 335 330 325 322 321 322 324 324
321 321 322 321 321 321 325 328 329 333 328 329 333 333 333 334 337 338 341 341 342 345 347 349 349 350 350 350 351 352 351 350 347 345 340 333 329 326 322 321 321 322 322 324
321 321 320 321 322 322 323 324 323 322 326 325 332 326 327 328 332 337 340 342 342 344 345 348 350 351 351 352 352 353 350 344 341 339 333 331 327 324 321 321 322 323 323 324
322 322 321 321 321 322 323 323 323 323 325 326 330 327 326 335 333 336 339 339 341 341 345 347 349 351 351 353 352 348 343 341 340 338 332 329 328 325 322 322 325 324 325 325
322 322 322 322 322 323 323 323 323 324 325 328 326 329 327 327 329 329 332 336 338 341 343 346 347 350 351 350 346 343 337 333 333 337 334 331 329 326 322 324 324 324 324 325
322 322 322 322 323 323 324 326 326 325 324 324 324 325 327 326 327 327 328 332 335 339 343 345 349 350 351 344 342 334 331 331 330 330 335 328 327 324 324 325 324 324 324 325
323 323 322 323 323 324 326 326 324 323 324 323 327 325 325 326 327 330 331 336 338 338 338 344 347 350 348 341 339 334 336 330 330 333 334 328 328 326 325 326 324 324 324 326
324 323 322 322 324 325 327 328 326 328 327 326 325 326 327 327 329 331 332 335 336 339 338 339 345 349 348 342 340 338 335 334 334 334 335 331 330 326 325 325 326 325 326 327
325 326 323 323 324 324 326 327 327 328 328 329 327 327 327 330 329 329 331 332 333 342 341 341 345 348 347 343 343 340 337 334 333 335 337 334 330 327 326 327 326 326 326 325
325 327 325 324 324 325 326 326 327 331 330 329 329 327 329 328 330 330 330 331 331 340 342 344 344 345 345 342 343 339 338 336 335 338 337 334 331 328 327 327 326 327 326 324
325 329 328 326 325 325 325 327 328 330 330 330 330 328 328 329 329 330 330 330 331 339 342 343 344 343 344 343 343 342 340 336 335 336 335 333 331 328 327 326 327 326 324 321
327 329 330 328 328 326 326 326 327 329 333 331 331 330 330 329 329 330 330 330 332 340 344 344 344 344 343 344 343 341 340 336 334 333 332 331 329 328 327 327 326 323 321 317
327 330 331 328 327 328 329 327 327 330 332 328 327 328 328 330 331 331 332 332 332 334 341 343 343 343 342 343 343 341 339 335 332 331 330 329 328 326 326 325 321 318 316 315
331 333 329 328 326 327 327 327 327 329 330 330 327 328 328 329 329 330 332 333 334 334 334 337 341 341 340 341 343 340 338 333 330 328 328 328 327 326 325 320 319 316 313 312
331 331 328 328 326 326 326 326 326 327 328 328 328 329 328 329 330 330 331 331 331 331 330 330 330 334 339 339 340 340 338 333 329 328 327 327 326 324 321 318 316 313 311 309
331 332 330 330 327 326 328 327 326 327 328 329 330 329 329 330 331 330 330 330 330 330 331 331 332 333 334 338 338 339 336 333 329 327 326 327 324 321 318 315 313 312 310 310
331 333 331 331 329 332 328 327 326 327 327 327 328 328 328 330 330 329 330 329 330 330 331 333 332 332 333 336 336 337 335 332 329 327 327 325 322 320 316 313 311 308 309 310
329 333 332 334 331 330 327 327 327 327 328 327 328 327 327 327 328 329 329 329 331 332 334 335 333 333 335 335 334 334 333 330 329 327 326 324 322 319 316 311 308 307 309 310
325 332 333 331 334 335 329 327 327 327 330 327 328 329 329 328 329 329 333 332 333 334 335 335 333 332 333 333 333 333 331 330 328 327 325 324 320 316 315 309 306 309 310 309
329 329 334 332 332 331 328 326 327 331 330 331 331 331 331 332 332 334 331 331 333 334 334 333 333 333 333 332 332 332 330 330 328 326 324 321 318 313 308 307 308 309 309 309
328 331 332 332 334 334 326 327 329 330 332 331 331 331 331 331 331 331 331 332 333 334 333 332 332 332 331 331 331 331 329 329 327 324 322 316 310 308 307 308 307 307 307 307
327 326 330 331 330 331 330 329 332 331 330 329 330 329 331 331 331 331 332 332 332 332 333 330 329 327 327 327 328 327 326 324 323 319 313 308 308 308 307 306 306 306 306 305
323 323 327 327 326 327 326 328 329 329 330 328 327 328 328 329 329 329 330 332 331 331 330 327 326 325 324 325 325 323 322 321 315 310 308 308 307 307 305 305 304 304 303 302
322 322 325 325 323 326 328 328 325 321 320 320 321 321 323 324 325 325 327 329 330 329 328 326 324 323 323 322 322 320 318 315 312 310 308 307 307 306 305 303 302 302 302 302
314 319 323 327 323 323 323 321 320 318 319 318 318 320 321 319 319 319 320 324 327 328 328 327 325 323 321 321 319 318 315 311 309 308 308 307 306 305 303 302 302 303 303 302
Wind_Speed
8 10 13 12 3 12 13 18 14 12 6 13 17 15 16 11 9 13 14 16 18 19 21 22 21 21 19 19 20 21 20 19 18 15 15 13 12 12 10 9 10 9 10 10
8 15 12 1 4 5 9 14 15 11 4 9 16 18 16 11 15 15 16 17 18 18 17 19 20 20 20 20 20 19 19 21 18 16 13 12 11 9 9 11 11 10 10 9
16 4 3 11 10 9 10 12 10 11 6 10 7 15 17 18 18 16 18 17 18 19 19 17 21 21 19 19 18 18 19 18 13 12 11 15 12 14 12 12 11 9 10 10
11 11 8 12 16 12 14 11 8 9 7 12 16 12 13 12 14 18 20 18 20 20 19 18 21 20 19 17 17 19 17 13 9 12 16 16 18 17 16 15 11 11 10 9
8 11 16 12 12 14 16 12 15 14 13 13 11 9 16 6 11 16 20 21 21 21 20 20 20 20 19 18 22 26 19 13 9 10 18 16 14 12 16 15 16 11 10 8
15 2 10 13 6 10 1 8 13 13 14 15 20 15 15 13 12 12 15 18 20 19 18 18 21 21 21 22 30 26 25 17 17 17 19 21 18 16 19 18 17 14 11 9
14 15 13 10 12 8 11 13 9 12 14 16 19 12 15 18 9 12 13 11 13 16 17 16 19 22 24 26 31 32 35 20 17 29 29 28 24 22 20 21 17 15 12 10
11 13 18 13 17 13 19 18 14 15 15 17 7 10 14 10 10 8 7 6 6 7 10 16 19 26 28 28 34 33 26 17 21 28 30 33 25 23 21 21 18 15 12 11
6 9 1 5 11 11 9 10 11 13 4 9 9 7 8 10 9 9 9 6 7 6 6 11 16 25 29 30 34 28 25 9 16 25 29 28 25 23 21 20 16 13 11 11
9 12 8 5 8 5 8 3 7 9 16 17 11 9 7 8 11 11 9 9 9 4 5 6 11 21 28 30 33 27 18 14 18 25 28 27 25 24 21 20 18 16 13 12
11 10 11 8 11 13 7 10 8 6 7 12 12 10 8 7 10 9 10 8 7 5 6 8 10 20 25 29 33 30 21 17 19 26 25 25 25 25 24 22 21 18 15 14
9 7 11 17 9 6 11 14 11 9 13 11 10 13 2 6 10 10 10 9 8 8 7 8 11 17 23 28 33 33 25 23 25 27 27 27 26 24 24 22 20 17 15 13
7 7 9 11 9 7 10 13 15 14 10 16 14 12 9 9 10 11 13 11 11 9 10 9 10 13 20 26 29 32 29 27 27 28 28 28 27 26 25 22 20 19 17 14
4 11 13 13 13 3 12 13 15 15 13 16 17 17 14 13 13 15 13 14 12 11 12 12 12 13 19 24 29 29 29 28 28 29 29 29 30 29 27 24 23 22 17 14
5 16 17 19 20 13 17 17 16 16 18 19 18 19 12 14 13 10 12 10 9 11 12 12 13 13 18 22 27 28 28 29 31 32 31 30 30 28 27 27 27 21 20 15
8 14 16 20 19 19 21 21 20 21 19 21 20 20 18 15 7 9 10 9 11 13 13 13 13 13 15 21 24 27 29 31 31 32 32 31 31 29 29 29 28 26 21 17
13 12 15 21 20 21 26 23 22 22 22 19 21 20 16 10 12 14 13 13 13 13 12 11 10 10 13 18 24 28 30 31 31 31 31 32 31 29 29 30 27 22 21 19
17 14 13 17 17 28 18 18 18 18 21 22 23 20 20 15 16 12 9 11 9 9 8 8 8 8 8 12 18 22 27 30 31 32 32 32 31 29 27 28 30 26 21 18
19 17 16 16 18 23 18 9 12 16 21 18 17 15 15 14 10 13 14 8 7 8 7 6 6 7 5 10 16 22 25 29 31 32 32 32 31 32 29 31 32 26 21 17
23 18 15 17 18 27 20 21 17 16 21 17 19 14 15 14 11 11 7 2 1 3 3 0 1 2 6 11 17 22 25 29 31 32 31 30 30 31 30 29 32 22 20 17
14 17 21 18 20 22 16 11 3 17 15 2 4 5 7 9 4 6 5 4 3 3 2 1 2 3 6 12 18 21 24 27 28 28 28 29 29 30 32 34 29 22 21 18
20 10 17 18 22 26 6 5 17 6 2 2 2 3 0 2 4 4 4 3 3 2 0 2 3 4 6 11 16 17 19 22 24 28 28 27 28 29 33 29 21 19 20 21
20 20 15 11 14 1 1 8 6 3 3 2 4 5 5 6 5 5 4 4 3 3 3 3 4 5 7 11 14 17 17 24 27 27 26 29 29 29 31 26 20 20 19 19
20 19 15 17 20 18 10 4 1 1 4 4 4 3 4 5 5 6 5 4 2 3 4 5 6 7 9 13 17 20 24 26 27 30 33 34 35 32 28 22 21 19 17 17
8 10 13 19 20 5 6 4 5 4 6 6 6 6 5 5 5 6 6 5 3 4 6 8 9 10 13 16 19 23 24 28 29 31 33 31 32 28 26 23 20 18 17 17
6 11 5 5 11 10 11 8 9 10 10 10 11 11 10 10 12 12 10 6 5 6 7 9 11 13 16 18 20 24 27 34 37 34 29 29 26 26 23 24 19 17 15 18
Wind_Direction
200 238 219 220 264 319 303 224 201 205 138 210 225 226 233 195 228 228 208 204 205 211 210 210 215 219 219 215 208 196 181 177 174 172 170 166 165 156 143 141 134 126 125 120
213 228 236 343 247 258 238 220 207 131 157 228 226 235 244 226 238 239 226 210 212 211 212 208 214 213 212 209 203 189 179 180 178 173 168 167 155 147 139 141 137 135 131 128
242 229 249 224 217 237 224 231 195 230 162 229 263 254 252 242 243 234 239 233 216 217 212 206 212 207 204 199 189 176 181 178 168 165 159 150 147 142 147 150 143 143 136 131
246 224 214 220 228 228 238 215 232 204 218 234 198 257 234 224 221 227 230 227 229 220 223 210 207 205 202 187 171 164 150 141 153 173 168 172 158 161 165 163 159 152 152 144
231 208 212 213 219 211 241 227 226 223 227 253 207 247 270 178 230 231 224 225 227 228 219 219 205 202 194 174 143 141 144 145 167 193 177 176 179 173 168 164 158 164 161 153
262 131 224 217 225 229 201 217 232 228 238 232 247 227 254 238 215 245 221 224 232 230 229 218 213 199 189 139 146 145 137 140 149 225 206 187 186 178 175 170 165 171 173 167
218 224 223 238 226 196 214 199 206 217 225 244 247 241 252 277 283 268 282 290 231 230 220 217 208 197 187 157 160 161 139 174 215 213 211 198 185 180 178 171 174 179 178 179
226 219 211 204 231 219 202 214 236 236 238 244 153 237 252 249 284 247 257 263 269 253 264 211 212 197 173 181 185 172 174 209 223 197 205 203 188 184 182 182 183 184 185 182
224 239 114 247 228 239 187 226 259 278 260 280 261 193 271 227 238 236 246 265 279 302 278 239 207 195 178 190 197 186 200 187 184 187 194 190 188 186 187 185 180 182 182 178
244 266 235 153 200 190 265 128 209 216 253 250 250 236 262 180 219 221 220 237 255 257 251 209 196 186 192 201 199 202 197 208 198 194 187 186 187 186 184 181 180 182 180 171
235 235 230 201 212 230 182 226 237 296 287 269 265 261 217 228 228 214 221 233 252 213 212 191 188 188 194 202 199 200 204 210 200 194 186 185 187 185 183 181 179 179 176 172
208 237 242 236 247 258 268 258 240 248 234 238 277 278 124 224 222 209 225 227 224 220 208 196 186 189 195 201 200 203 205 200 194 190 187 184 185 183 183 181 175 175 171 163
181 214 238 228 206 214 232 226 240 248 270 263 271 263 187 197 234 223 235 237 230 207 202 208 201 198 202 202 201 203 207 203 194 188 185 181 180 180 181 175 172 171 159 162
249 244 241 254 260 320 206 227 226 232 253 261 250 253 252 210 227 236 233 243 252 226 212 214 214 211 210 208 205 205 205 201 192 188 186 180 177 178 174 169 165 163 158 167
240 241 240 252 261 265 263 260 242 231 248 256 269 273 272 260 274 238 247 247 242 238 233 225 228 228 214 213 210 204 202 199 190 186 184 179 175 173 169 163 159 156 160 170
231 255 254 255 251 250 252 251 254 260 250 260 263 261 272 270 255 238 230 231 244 256 264 263 264 252 227 214 213 206 201 198 191 187 181 176 171 167 163 160 163 162 164 165
268 262 245 250 250 260 257 252 253 256 252 252 258 258 261 224 240 256 259 259 263 266 271 276 280 277 255 225 209 203 198 194 193 187 179 175 170 166 160 161 158 163 159 156
256 258 255 255 258 250 255 259 259 252 253 252 255 258 273 264 269 276 265 255 252 259 276 273 280 273 250 220 207 197 195 191 189 185 180 175 169 165 160 158 158 165 159 158
230 243 256 251 243 252 247 225 233 240 252 246 257 264 252 258 262 264 254 264 284 296 286 281 293 284 225 189 183 187 188 185 191 187 180 175 168 167 165 157 167 160 159 160
228 220 242 242 243 248 256 251 230 243 260 258 263 252 264 275 257 261 50 65 329 318 312 359 87 155 167 171 173 182 183 188 193 188 182 175 168 168 166 162 159 168 157 156
214 226 225 233 248 255 254 270 294 237 252 321 304 287 274 251 308 4 359 351 353 339 15 64 156 177 169 171 175 183 186 192 188 179 170 169 166 162 158 153 159 167 156 153
247 220 223 235 242 249 219 204 230 301 81 192 130 80 319 271 291 300 318 315 303 300 214 209 195 174 169 172 179 184 188 182 170 157 159 153 151 150 145 146 157 161 150 150
243 254 256 248 231 1 90 248 39 5 308 335 326 331 299 290 293 298 298 312 328 270 216 206 189 171 175 177 180 167 160 148 150 146 141 138 135 133 145 144 158 160 157 154
260 258 259 271 250 255 242 225 162 116 68 44 28 340 317 326 331 327 326 332 278 219 202 189 175 179 173 170 158 149 147 148 138 136 136 135 134 147 154 155 170 151 160 163
289 330 257 250 250 263 229 172 92 349 324 317 319 315 304 323 323 325 333 330 287 225 201 191 191 188 177 166 152 153 151 146 145 145 138 141 148 154 161 163 153 160 168 164
235 273 295 277 341 323 293 318 304 308 306 317 316 305 295 311 306 302 291 288 257 214 203 198 200 191 181 172 164 163 163 156 150 144 148 153 160 156 156 150 154 175 171 161